Location: Unspecified
(40.9447°N, 78.9903°W)
Time: 14:40:15
(UTC-04:00)

Hubble Space Telescope - Pass Details

Date: 23 January 2019
Orbit: 537 x 540 km, 28.5° (Epoch: 21 April)

Event Time Altitude Azimuth Distance (km) Brightness Sun altitude
Exits shadow 06:24:21 - 229° (SW) 2,121 3.5 -13.2°
Reaches altitude 10° 06:26:42 10° 201° (SSW) 1,782 3.4 -12.8°
Maximum altitude 06:27:12 10° 194° (SSW) 1,770 3.4 -12.7°
Drops below altitude 10° 06:27:44 10° 186° (S) 1,782 3.5 -12.6°
Sets 06:32:08 0° 142° (SE) 2,672 5.3 -11.8°
